Regional Weather Roundup
Issued by NWS Little Rock, AR

Home | Current Version | Previous Version | Graphics & Text | Print | Product List | Glossary On
Versions: 1 2 3 4 5 6 7 8 9 10 11 12 13 14 15 16 17 18 19 20 21 22 23 24 25 26 27 28 29 30 31 32 33 34 35 36 37 38 39 40 41 42 43 44 45 46 47 48 49 50
625
ASUS44 KLZK 301805
RWRLZK

WEATHER ROUNDUP FOR ARKANSAS
NATIONAL WEATHER SERVICE LITTLE ROCK AR
100 PM CDT SUN APR 30 2017

NOTE: "FAIR" INDICATES FEW OR NO CLOUDS BELOW 12,000 FEET WITH NO
SIGNIFICANT WEATHER AND/OR OBSTRUCTIONS TO VISIBILITY.

ARZ001-003-010-029-301900-
NORTHWEST ARKANSAS

CITY           SKY/WX    TMP DP  RH WIND       PRES   REMARKS
FAYETTEVILLE   CLOUDY    55  48  77 S16G33    29.61F
6HR MIN TEMP:  52; 6HR MAX TEMP:  59;

FORT SMITH     CLOUDY    60  42  51 SW21G31   29.67R
6HR MIN TEMP:  56; 6HR MAX TEMP:  61; 6HR PCP:  0.01;

HARRISON       PTSUNNY   64  51  62 S18G30    29.58F
6HR MIN TEMP:  62; 6HR MAX TEMP:  66; 6HR PCP: TRACE;

BENTONVILLE    CLOUDY    55  45  67 S15G26    29.59F
6HR MIN TEMP:  52; 6HR MAX TEMP:  57;

ROGERS         LGT RAIN  59  47  64 S30G38    29.59F
6HR MIN TEMP:  53; 6HR MAX TEMP:  59; 6HR PCP:  0.17;

SILOAM SPGS    CLOUDY    54  41  62 SW23G37   29.60S
6HR MIN TEMP:  52; 6HR MAX TEMP:  55;

HIGHFILL       LGT RAIN  56  45  66 SW20G39   29.58F
6HR MIN TEMP:  51; 6HR MAX TEMP:  57; 6HR PCP: TRACE;

SPRINGDALE     PTSUNNY   57  46  67 S23G36    29.61F
$$

ARZ004-005-016-301900-
NORTH CENTRAL ARKANSAS

CITY           SKY/WX    TMP DP  RH WIND       PRES   REMARKS
BATESVILLE     CLOUDY    70  61  73 SE10      29.65S
6HR MIN TEMP:  66; 6HR MAX TEMP:  70; 6HR PCP:  0.38;

FLIPPIN        PTSUNNY  N/A N/A N/A S10G17    29.53F
                                      6HR PCP:  0.19;

MTN HOME       CLOUDY    70  59  68 S15G22    29.56
6HR MIN TEMP:  63; 6HR MAX TEMP:  71; 6HR PCP:  0.13;

$$

ARZ040-041-301900-
WEST CENTRAL ARKANSAS

CITY           SKY/WX    TMP DP  RH WIND       PRES   REMARKS
MENA           CLOUDY    59  50  72 SW9G18    29.72F
$$

ARZ009-017-025-026-028-301900-
NORTHEAST ARKANSAS

CITY           SKY/WX    TMP DP  RH WIND       PRES   REMARKS
JONESBORO      LGT RAIN  70  64  81 S13       29.65F
6HR MIN TEMP:  65; 6HR MAX TEMP:  71;

NEWPORT        CLOUDY    68  64  87 S15       29.65
6HR MIN TEMP:  68; 6HR MAX TEMP:  71;

WALNUT RIDGE   CLOUDY    70  63  78 S21G26    29.63F
6HR MIN TEMP:  64; 6HR MAX TEMP:  70; 6HR PCP:  1.08;

BLYTHEVILLE    LGT RAIN  71  69  93 S14G28    29.66R
6HR MIN TEMP:  65; 6HR MAX TEMP:  73; 6HR PCP:  0.12;

$$

ARZ022-023-033-042-044-301900-
CENTRAL ARKANSAS

CITY           SKY/WX    TMP DP  RH WIND       PRES   REMARKS
LITTLE ROCK    LGT RAIN  60  58  92 SW17      29.71R
6HR MIN TEMP:  60; 6HR MAX TEMP:  67; 6HR PCP: TRACE;

N LITTLE ROCK    N/A     60  56  88 SW9G20    29.70R
6HR MIN TEMP:  60; 6HR MAX TEMP:  67;

JACKSONVILLE   LGT RAIN  64  59  83 S13       29.68R
6HR MIN TEMP:  62; 6HR MAX TEMP:  69; 6HR PCP:  0.02;

CONWAY           N/A     61  55  82 SW14G24   29.69R
SEARCY         CLOUDY    70  64  81 S14       29.67F
6HR MIN TEMP:  65; 6HR MAX TEMP:  71; 6HR PCP:  0.36;

CLINTON        DRIZZLE   63  57  82 S10G21    29.65R
$$

ARZ036-301900-
EAST ARKANSAS

CITY           SKY/WX    TMP DP  RH WIND       PRES   REMARKS
WEST MEMPHIS   CLOUDY    70  70 100 S16       29.70S
6HR MIN TEMP:  70; 6HR MAX TEMP:  73;

$$

ARZ050-053-066-070-073-301900-
SOUTHWEST ARKANSAS

CITY           SKY/WX    TMP DP  RH WIND       PRES   REMARKS
ARKADELPHIA    MOCLDY    59  54  83 SW13      29.76F
6HR MIN TEMP:  57; 6HR MAX TEMP:  59;

CAMDEN         CLOUDY    59  50  72 SW13G18   29.78R
TEXARKANA      CLOUDY    58  44  60 W20G28    29.78F
6HR MIN TEMP:  54; 6HR MAX TEMP:  59; 6HR PCP:  0.01;

EL DORADO      CLOUDY    58  53  84 SW7       29.80R
6HR MIN TEMP:  58; 6HR MAX TEMP:  62;

DE QUEEN       MOSUNNY   60  44  55 SW15G26   29.75F
6HR MIN TEMP:  54; 6HR MAX TEMP:  60; 6HR PCP: TRACE;

$$

ARZ056-057-069-301900-
SOUTHEAST ARKANSAS

CITY           SKY/WX    TMP DP  RH WIND       PRES   REMARKS
PINE BLUFF     PTSUNNY   66  59  78 SW13      29.72F
6HR MIN TEMP:  64; 6HR MAX TEMP:  67; 6HR PCP:  0.05;

STUTTGART      CLOUDY    70  55  60 S16       29.69F
6HR MIN TEMP:  64; 6HR MAX TEMP:  72; 6HR PCP:  0.28;

MONTICELLO     CLOUDY    71  62  73 SW9       29.73F
6HR MIN TEMP:  64; 6HR MAX TEMP:  71; 6HR PCP:  0.19;


$$






USA.gov is the U.S. government's official web portal to all federal, state and local government web resources and services.